Falfurrias, TX

4:36 AM CST on November 21, 2019 (GMT -0600)
Falfurrias

Weather History for KBKS - August, 2019

Change the Weather History Date:

Friday, August 16, 2019

  Actual Average (KNQI) Record (KNQI)
Temperature  
Mean Temperature 92 °F -  
Max Temperature 106 °F 94 °F 106 °F (2010)
Min Temperature 78 °F 74 °F 66 °F (2004)
Cooling Degree Days 26    
Growing Degree Days 42 (Base 50)    
Moisture  
Dew Point 71 °F    
Average Humidity 58    
Maximum Humidity 89    
Minimum Humidity 22    
Precipitation  
Precipitation 0.00 in - - ()
Sea Level Pressure  
Sea Level Pressure 29.89 in    
Wind  
Wind Speed 7 mph ()    
Max Wind Speed 17 mph    
Max Gust Speed 23 mph    
Visibility 10.0 miles    
Events      
Averages and records for this station are not official NWS values.
T = Trace of Precipitation, MM = Missing Value Source: Averaged Metar Reports

Daily Weather History Graph

Daily Weather History Graph

Search for Another Location

Airport or City:

Astronomy

Aug. 16, 2019 Rise Set
Actual Time 7:04 AM CDT 8:09 PM CDT
Civil Twilight 6:39 AM CDT 8:33 PM CDT
Nautical Twilight 6:10 AM CDT 9:02 PM CDT
Astronomical Twilight 5:41 AM CDT 9:31 PM CDT
Moon 9:12 PM CDT (8/16) 7:56 AM CDT (8/16)
Length of Visible Light 13h 53m
Length of Day
13h 05m
Full, 99% of the Moon is Illuminated
Aug 16
Full
Aug 23
Last Quarter
Aug 30
New
Sep 5
First Quarter
Sep 13
Full

Hourly Weather History & Observations

Time (CDT) Temp. Heat Index Dew Point Humidity Pressure Visibility Wind Dir Wind Speed Gust Speed Precip Events Conditions
12:15 AM 84.7 °F 94.0 °F 76.1 °F 75% 29.94 in 10.0 mi SE 9.2 mph - N/A   Clear
12:35 AM 84.6 °F 94.3 °F 76.5 °F 77% 29.94 in 10.0 mi SSE 8.1 mph - N/A   Clear
12:55 AM 84.2 °F 93.4 °F 76.3 °F 77% 29.94 in 10.0 mi SE 8.1 mph - N/A   Clear
1:15 AM 84.2 °F 93.4 °F 76.3 °F 77% 29.94 in 10.0 mi SSE 9.2 mph - N/A   Clear
1:35 AM 83.7 °F 92.4 °F 76.1 °F 78% 29.93 in 10.0 mi SSE 8.1 mph - N/A   Clear
1:55 AM 83.5 °F 91.9 °F 76.1 °F 78% 29.93 in 10.0 mi SSE 6.9 mph - N/A   Clear
2:15 AM 83.3 °F 91.8 °F 76.1 °F 79% 29.93 in 10.0 mi SSE 6.9 mph - N/A   Clear
2:35 AM 82.9 °F 90.8 °F 75.9 °F 79% 29.93 in 10.0 mi SSE 6.9 mph - N/A   Clear
2:55 AM 82.6 °F 90.2 °F 75.7 °F 80% 29.92 in 10.0 mi SE 5.8 mph - N/A   Clear
3:15 AM 82.4 °F 89.8 °F 75.6 °F 80% 29.92 in 10.0 mi SSE 4.6 mph - N/A   Clear
3:35 AM 82.0 °F 89.1 °F 75.6 °F 81% 29.91 in 10.0 mi SE 5.8 mph - N/A   Clear
3:55 AM 81.9 °F 88.7 °F 75.6 °F 81% 29.91 in 10.0 mi SE 4.6 mph - N/A   Clear
4:15 AM 81.5 °F 88.0 °F 75.6 °F 82% 29.91 in 10.0 mi SE 4.6 mph - N/A   Clear
4:35 AM 81.5 °F 88.3 °F 75.7 °F 83% 29.91 in 10.0 mi SE 3.5 mph - N/A   Clear
4:55 AM 81.0 °F 87.1 °F 75.6 °F 84% 29.89 in 10.0 mi SE 5.8 mph - N/A   Clear
5:15 AM 81.0 °F 87.1 °F 75.6 °F 84% 29.89 in 10.0 mi SE 3.5 mph - N/A   Clear
5:35 AM 80.8 °F 86.7 °F 75.6 °F 84% 29.90 in 10.0 mi SSE 4.6 mph - N/A   Clear
5:55 AM 80.6 °F 86.4 °F 75.6 °F 85% 29.90 in 10.0 mi SE 3.5 mph - N/A   Clear
6:15 AM 80.6 °F 86.4 °F 75.6 °F 85% 29.91 in 10.0 mi Calm Calm - N/A   Clear
6:35 AM 79.2 °F - 75.2 °F 88% 29.91 in 10.0 mi East 3.5 mph - N/A   Clear
6:55 AM 78.8 °F - 74.8 °F 88% 29.91 in 10.0 mi Calm Calm - N/A   Clear
7:15 AM 78.1 °F - 74.5 °F 89% 29.91 in 10.0 mi Calm Calm - N/A   Clear
7:35 AM 78.1 °F - 74.7 °F 89% 29.92 in 10.0 mi ESE 3.5 mph - N/A   Clear
7:55 AM 79.2 °F - 75.2 °F 88% 29.91 in 10.0 mi ESE 3.5 mph - N/A   Clear
8:15 AM 81.3 °F 87.8 °F 75.7 °F 83% 29.92 in 10.0 mi ESE 4.6 mph - N/A   Clear
8:35 AM 83.7 °F 92.4 °F 76.3 °F 78% 29.93 in 10.0 mi SE 3.5 mph - N/A   Clear
8:55 AM 85.1 °F 94.9 °F 76.3 °F 75% 29.93 in 10.0 mi SSE 6.9 mph - N/A   Clear
9:15 AM 87.1 °F 97.3 °F 75.9 °F 69% 29.93 in 10.0 mi South 9.2 mph - N/A   Clear
9:35 AM 88.7 °F 98.7 °F 75.0 °F 64% 29.93 in 10.0 mi SSE 10.4 mph - N/A   Clear
9:55 AM 89.8 °F 99.2 °F 74.3 °F 60% 29.93 in 10.0 mi SSE 11.5 mph - N/A   Clear
10:15 AM 91.2 °F 100.2 °F 73.6 °F 56% 29.93 in 10.0 mi SSE 8.1 mph - N/A   Clear
10:35 AM 92.7 °F 101.1 °F 72.5 °F 52% 29.93 in 10.0 mi South 5.8 mph - N/A   Clear
10:55 AM 94.3 °F 102.2 °F 71.6 °F 48% 29.93 in 10.0 mi SE 6.9 mph - N/A   Clear
11:15 AM 95.2 °F 100.5 °F 68.9 °F 42% 29.94 in 10.0 mi ESE 8.1 mph - N/A   Clear
11:35 AM 96.1 °F 101.6 °F 69.1 °F 41% 29.94 in 10.0 mi SSE 6.9 mph - N/A   Clear
11:55 AM 97.5 °F 101.4 °F 66.4 °F 36% 29.94 in 10.0 mi SE 8.1 mph - N/A   Clear
12:15 PM 98.4 °F 103.1 °F 66.9 °F 36% 29.93 in 10.0 mi SE 3.5 mph - N/A   Clear
12:35 PM 99.5 °F 103.9 °F 66.2 °F 34% 29.92 in 10.0 mi ESE 8.1 mph - N/A   Clear
12:55 PM 99.7 °F 102.3 °F 63.7 °F 31% 29.91 in 10.0 mi East 4.6 mph - N/A   Clear
1:15 PM 101.7 °F 103.3 °F 62.2 °F 27% 29.91 in 10.0 mi SE 8.1 mph - N/A   Clear
1:35 PM 102.7 °F 103.9 °F 61.0 °F 25% 29.90 in 10.0 mi South 6.9 mph - N/A   Clear
1:55 PM 101.8 °F 103.0 °F 61.3 °F 26% 29.89 in 10.0 mi SSE 8.1 mph - N/A   Clear
2:15 PM 103.1 °F 104.5 °F 60.8 °F 25% 29.88 in 10.0 mi SSE 9.2 mph 17.3 mph N/A   Clear
2:35 PM 103.8 °F 105.0 °F 59.9 °F 24% 29.87 in 10.0 mi SE 5.8 mph - N/A   Clear
2:55 PM 103.8 °F 105.0 °F 60.8 °F 24% 29.86 in 10.0 mi South 10.4 mph - N/A   Clear
3:15 PM 105.8 °F 107.5 °F 60.4 °F 23% 29.85 in 10.0 mi SE 9.2 mph 17.3 mph N/A   Scattered Clouds
3:35 PM 104.7 °F 105.8 °F 60.3 °F 23% 29.84 in 10.0 mi East 6.9 mph - N/A   Scattered Clouds
3:55 PM 104.7 °F 105.8 °F 59.4 °F 23% 29.83 in 10.0 mi East 9.2 mph - N/A   Clear
4:15 PM 105.6 °F 106.5 °F 59.7 °F 22% 29.83 in 10.0 mi SW 4.6 mph 9.2 mph N/A   Scattered Clouds
4:35 PM 104.9 °F 106.8 °F 61.3 °F 24% 29.81 in 10.0 mi SE 8.1 mph - N/A   Scattered Clouds
4:55 PM 102.7 °F 109.5 °F 68.5 °F 33% 29.81 in 10.0 mi ENE 12.7 mph 21.9 mph N/A   Scattered Clouds
5:15 PM 104.2 °F 110.8 °F 67.8 °F 31% 29.81 in 10.0 mi East 13.8 mph 18.4 mph N/A   Scattered Clouds
5:35 PM 103.3 °F 109.8 °F 68.0 °F 32% 29.80 in 10.0 mi ESE 11.5 mph 20.7 mph N/A   Scattered Clouds
5:55 PM 102.4 °F 108.8 °F 68.4 °F 33% 29.80 in 10.0 mi East 12.7 mph 18.4 mph N/A   Clear
6:15 PM 100.6 °F 106.7 °F 68.7 °F 35% 29.80 in 10.0 mi East 17.3 mph 23.0 mph N/A   Clear
6:35 PM 99.5 °F 105.9 °F 68.7 °F 37% 29.81 in 10.0 mi ESE 15.0 mph 21.9 mph N/A   Clear
6:55 PM 97.3 °F 102.3 °F 68.2 °F 38% 29.81 in 10.0 mi ESE 17.3 mph - N/A   Clear
7:15 PM 95.4 °F 101.4 °F 69.6 °F 43% 29.81 in 10.0 mi ESE 15.0 mph 20.7 mph N/A   Clear
7:35 PM 93.7 °F 101.1 °F 71.1 °F 48% 29.81 in 10.0 mi ESE 16.1 mph 23.0 mph N/A   Clear
7:55 PM 92.3 °F 99.7 °F 71.6 °F 51% 29.81 in 10.0 mi ESE 16.1 mph 21.9 mph N/A   Clear
8:15 PM 90.9 °F 98.9 °F 72.5 °F 55% 29.82 in 10.0 mi ESE 12.7 mph - N/A   Clear
8:35 PM 90.0 °F 98.5 °F 73.4 °F 58% 29.83 in 10.0 mi ESE 9.2 mph - N/A   Clear
8:55 PM 89.6 °F 98.2 °F 73.6 °F 59% 29.83 in 10.0 mi ESE 12.7 mph - N/A   Clear
9:15 PM 88.7 °F 97.2 °F 73.8 °F 61% 29.84 in 10.0 mi SE 10.4 mph - N/A   Clear
9:35 PM 88.0 °F 96.5 °F 73.9 °F 63% 29.84 in 10.0 mi ESE 12.7 mph 18.4 mph N/A   Clear
9:55 PM 87.8 °F 97.1 °F 74.7 °F 65% 29.85 in 10.0 mi ESE 12.7 mph 17.3 mph N/A   Clear
10:15 PM 87.1 °F 96.8 °F 75.2 °F 68% 29.86 in 10.0 mi SE 11.5 mph - N/A   Clear
10:35 PM 86.7 °F 96.4 °F 75.6 °F 69% 29.87 in 10.0 mi SE 11.5 mph 18.4 mph N/A   Clear
10:55 PM 86.5 °F 96.4 °F 75.9 °F 70% 29.88 in 10.0 mi SE 13.8 mph 19.6 mph N/A   Clear
11:15 PM 86.2 °F 96.4 °F 76.1 °F 72% 29.88 in 10.0 mi SE 13.8 mph 17.3 mph N/A   Clear
11:35 PM 86.0 °F 96.0 °F 76.1 °F 72% 29.89 in 10.0 mi SE 13.8 mph 19.6 mph N/A   Clear
11:55 PM 85.5 °F 95.0 °F 76.1 °F 73% 29.89 in 10.0 mi SE 12.7 mph 17.3 mph N/A   Clear